• In Belarus
  • List of Countries
  • For 7 days
  • Water Temperature
  • Satellite Maps
  • Weather Map
  • Weather Widgets
  • user-avatar
    Login

    Hourly Weather Chakhansur

    Today, 25 February, Sunday

    Time Temperature Precipitation Wind Pressure Humidity
    00:00 +21°C° 0 mm 5 mps 717 mmHg 29%
    01:00 +21°C° 0 mm 5 mps 717 mmHg 30%
    02:00 +21°C° 0 mm 6 mps 717 mmHg 30%
    03:00 +21°C° 0 mm 6 mps 717 mmHg 31%
    04:00 +20°C° 0 mm 7 mps 716 mmHg 31%
    05:00 +20°C° 0 mm 7 mps 717 mmHg 31%
    06:00 +20°C° 0 mm 6 mps 717 mmHg 31%
    07:00 +20°C° 0 mm 6 mps 717 mmHg 31%
    08:00 +22°C° 0 mm 7 mps 717 mmHg 30%
    09:00 +24°C° 0 mm 7 mps 717 mmHg 29%
    10:00 +27°C° 0 mm 7 mps 717 mmHg 28%
    11:00 +27°C° 0.1 mm 8 mps 717 mmHg 29%
    12:00 +27°C° 0.1 mm 8 mps 716 mmHg 31%
    13:00 +27°C° 0.1 mm 9 mps 716 mmHg 32%
    14:00 +28°C° 0 mm 9 mps 716 mmHg 30%
    15:00 +29°C° 0 mm 9 mps 715 mmHg 27%
    16:00 +31°C° 0 mm 9 mps 715 mmHg 25%
    17:00 +29°C° 0 mm 9 mps 715 mmHg 25%
    18:00 +29°C° 0 mm 8 mps 715 mmHg 26%
    19:00 +28°C° 0 mm 8 mps 715 mmHg 26%
    20:00 +26°C° 0.5 mm 8 mps 715 mmHg 34%
    21:00 +24°C° 0.5 mm 8 mps 716 mmHg 43%
    22:00 +22°C° 0.5 mm 8 mps 716 mmHg 51%
    23:00 +22°C° 0.3 mm 7 mps 716 mmHg 51%

    Tomorrow, 26 February, Monday

    Time Temperature Precipitation Wind Pressure Humidity
    00:00 +22°C° 0.3 mm 7 mps 715 mmHg 51%
    01:00 +22°C° 0.3 mm 6 mps 715 mmHg 51%
    02:00 +22°C° 0 mm 6 mps 715 mmHg 49%
    03:00 +22°C° 0 mm 6 mps 715 mmHg 47%
    04:00 +22°C° 0 mm 6 mps 715 mmHg 45%
    05:00 +22°C° 0.1 mm 6 mps 715 mmHg 47%
    06:00 +21°C° 0.1 mm 6 mps 716 mmHg 50%
    07:00 +21°C° 0.1 mm 6 mps 716 mmHg 52%
    08:00 +22°C° 0.3 mm 6 mps 716 mmHg 49%
    09:00 +23°C° 0.3 mm 6 mps 717 mmHg 46%
    10:00 +24°C° 0.3 mm 6 mps 717 mmHg 43%
    11:00 +25°C° 0 mm 5 mps 717 mmHg 39%
    12:00 +26°C° 0 mm 5 mps 716 mmHg 35%
    13:00 +27°C° 0 mm 4 mps 716 mmHg 32%
    14:00 +27°C° 0 mm 4 mps 716 mmHg 30%
    15:00 +28°C° 0 mm 4 mps 715 mmHg 28%
    16:00 +28°C° 0 mm 3 mps 715 mmHg 27%
    17:00 +27°C° 0 mm 3 mps 715 mmHg 28%
    18:00 +26°C° 0 mm 3 mps 716 mmHg 28%
    19:00 +25°C° 0 mm 2 mps 716 mmHg 29%
    20:00 +25°C° 0 mm 2 mps 716 mmHg 31%
    21:00 +24°C° 0 mm 3 mps 717 mmHg 32%
    22:00 +24°C° 0 mm 3 mps 717 mmHg 33%
    23:00 +22°C° 0 mm 3 mps 717 mmHg 36%

    Day after tomorrow, 27 February, Tuesday

    Time Temperature Precipitation Wind Pressure Humidity
    00:00 +21°C° 0 mm 3 mps 717 mmHg 39%
    01:00 +21°C° 0 mm 3 mps 717 mmHg 42%
    02:00 +20°C° 0 mm 3 mps 717 mmHg 43%
    03:00 +20°C° 0 mm 3 mps 717 mmHg 45%
    04:00 +19°C° 0 mm 3 mps 717 mmHg 47%
    05:00 +19°C° 0 mm 3 mps 717 mmHg 47%
    06:00 +19°C° 0 mm 3 mps 718 mmHg 47%
    07:00 +18°C° 0 mm 3 mps 718 mmHg 47%
    08:00 +20°C° 0 mm 4 mps 718 mmHg 42%
    09:00 +22°C° 0 mm 4 mps 719 mmHg 37%
    10:00 +25°C° 0 mm 4 mps 719 mmHg 32%
    11:00 +26°C° 0 mm 4 mps 719 mmHg 30%
    12:00 +27°C° 0 mm 3 mps 718 mmHg 29%
    13:00 +28°C° 0 mm 3 mps 718 mmHg 27%
    14:00 +28°C° 0 mm 3 mps 717 mmHg 26%
    15:00 +28°C° 0 mm 3 mps 717 mmHg 25%
    16:00 +29°C° 0 mm 2 mps 716 mmHg 24%
    17:00 +28°C° 0 mm 2 mps 716 mmHg 26%
    18:00 +27°C° 0 mm 1 mps 716 mmHg 28%
    19:00 +26°C° 0 mm 1 mps 716 mmHg 30%
    20:00 +25°C° 0 mm 1 mps 716 mmHg 31%
    21:00 +25°C° 0 mm 1 mps 716 mmHg 31%
    22:00 +24°C° 0 mm 2 mps 717 mmHg 32%
    23:00 +24°C° 0 mm 2 mps 716 mmHg 33%

    28 February, Wednesday

    Time Temperature Precipitation Wind Pressure Humidity
    00:00 +23°C° 0 mm 2 mps 716 mmHg 34%
    01:00 +22°C° 0 mm 3 mps 716 mmHg 35%
    02:00 +21°C° 0 mm 3 mps 716 mmHg 37%
    03:00 +21°C° 0 mm 3 mps 715 mmHg 39%
    04:00 +20°C° 0 mm 3 mps 715 mmHg 41%
    05:00 +20°C° 0 mm 3 mps 716 mmHg 43%
    06:00 +20°C° 0 mm 3 mps 716 mmHg 45%
    07:00 +20°C° 0 mm 3 mps 716 mmHg 47%
    08:00 +21°C° 0 mm 3 mps 717 mmHg 42%
    09:00 +23°C° 0 mm 4 mps 717 mmHg 37%
    10:00 +26°C° 0 mm 4 mps 717 mmHg 32%
    11:00 +27°C° 0 mm 3 mps 717 mmHg 29%
    12:00 +28°C° 0 mm 3 mps 716 mmHg 27%
    13:00 +29°C° 0 mm 3 mps 715 mmHg 24%
    14:00 +29°C° 0 mm 3 mps 715 mmHg 24%
    15:00 +29°C° 0 mm 2 mps 714 mmHg 23%
    16:00 +29°C° 0 mm 2 mps 714 mmHg 22%
    17:00 +28°C° 0 mm 2 mps 714 mmHg 25%
    18:00 +27°C° 0 mm 1 mps 714 mmHg 27%
    19:00 +26°C° 0 mm 1 mps 714 mmHg 29%
    20:00 +25°C° 0 mm 1 mps 714 mmHg 31%
    21:00 +25°C° 0 mm 1 mps 714 mmHg 32%
    22:00 +22°C° 0 mm 0 mps 714 mmHg 34%
    23:00 +22°C° 0.3 mm 0 mps 714 mmHg 36%

    1 March, Thursday

    Time Temperature Precipitation Wind Pressure Humidity
    00:00 +21°C° 0.3 mm 0 mps 714 mmHg 38%
    01:00 +21°C° 0.3 mm 0 mps 714 mmHg 40%
    02:00 +21°C° 0.1 mm 2 mps 714 mmHg 42%
    03:00 +21°C° 0.1 mm 3 mps 714 mmHg 45%
    04:00 +20°C° 0.1 mm 4 mps 714 mmHg 48%
    05:00 +20°C° 0 mm 4 mps 714 mmHg 52%
    06:00 +19°C° 0 mm 4 mps 715 mmHg 55%
    07:00 +19°C° 0 mm 4 mps 715 mmHg 58%
    08:00 +20°C° 0 mm 4 mps 716 mmHg 54%
    09:00 +21°C° 0 mm 4 mps 716 mmHg 49%
    10:00 +23°C° 0 mm 4 mps 717 mmHg 45%
    11:00 +25°C° 0 mm 5 mps 716 mmHg 41%
    12:00 +26°C° 0 mm 5 mps 716 mmHg 38%
    13:00 +27°C° 0 mm 5 mps 716 mmHg 34%
    14:00 +27°C° 0 mm 5 mps 715 mmHg 31%
    15:00 +27°C° 0 mm 5 mps 715 mmHg 29%
    16:00 +27°C° 0 mm 5 mps 715 mmHg 26%
    17:00 +27°C° 0 mm 4 mps 715 mmHg 28%
    18:00 +26°C° 0 mm 3 mps 715 mmHg 29%
    19:00 +25°C° 0 mm 2 mps 716 mmHg 31%
    20:00 +24°C° 0 mm 3 mps 716 mmHg 34%
    21:00 +22°C° 0 mm 3 mps 716 mmHg 38%
    22:00 +21°C° 0 mm 4 mps 716 mmHg 41%
    23:00 +21°C° 0 mm 4 mps 716 mmHg 44%

    2 March, Friday

    Time Temperature Precipitation Wind Pressure Humidity
    00:00 +20°C° 0 mm 5 mps 716 mmHg 46%
    01:00 +19°C° 0 mm 5 mps 716 mmHg 49%
    02:00 +19°C° 0 mm 5 mps 716 mmHg 50%
    03:00 +18°C° 0 mm 4 mps 716 mmHg 52%
    04:00 +18°C° 0 mm 4 mps 716 mmHg 54%
    05:00 +17°C° 0 mm 4 mps 717 mmHg 54%
    06:00 +17°C° 0 mm 4 mps 717 mmHg 55%
    07:00 +17°C° 0 mm 3 mps 717 mmHg 56%
    08:00 +19°C° 0 mm 3 mps 718 mmHg 50%
    09:00 +20°C° 0 mm 4 mps 719 mmHg 44%
    10:00 +22°C° 0 mm 4 mps 719 mmHg 39%
    11:00 +24°C° 0 mm 3 mps 719 mmHg 34%
    12:00 +25°C° 0 mm 3 mps 718 mmHg 29%
    13:00 +26°C° 0 mm 2 mps 718 mmHg 24%
    14:00 +27°C° 0 mm 2 mps 717 mmHg 23%
    15:00 +27°C° 0 mm 2 mps 717 mmHg 22%
    16:00 +27°C° 0 mm 2 mps 717 mmHg 21%
    17:00 +27°C° 0 mm 2 mps 717 mmHg 22%
    18:00 +26°C° 0 mm 3 mps 717 mmHg 24%
    19:00 +25°C° 0 mm 3 mps 718 mmHg 25%
    20:00 +25°C° 0 mm 3 mps 718 mmHg 26%
    21:00 +24°C° 0 mm 3 mps 718 mmHg 27%
    22:00 +22°C° 0 mm 3 mps 718 mmHg 28%
    23:00 +22°C° 0 mm 3 mps 718 mmHg 30%
    Show more